WI0K Weather Reports


Display with metric or nautical units.
time (UTC)temp
F
wind
direction
speed
MPH
gust
MPH
rain 1hr
in
rain 24hr
in
rain mn
in
humidity
%
barometer
mb
20260505083234 48 82 1.0 3.0 0.00 0.09 0.00 84 1012.0
20260505082733 48 52 1.0 2.0 0.00 0.09 0.00 86 1012.2
20260505082233 48 29 0.0 1.0 0.00 0.09 0.00 87 1012.4
20260505082142 48 40 1.0 1.0 0.00 0.09 0.00 87 1012.3
20260505081732 48 40 1.0 1.0 0.00 0.09 0.00 87 1012.3
20260505081232 48 28 0.0 1.0 0.00 0.09 0.00 87 1012.3
20260505080731 48 337 0.0 1.0 0.00 0.09 0.00 87 1012.3
20260505080231 48 36 1.0 1.0 0.00 0.09 0.00 88 1012.2
20260505075730 48 346 1.0 1.0 0.00 0.09 0.00 88 1012.2
20260505075229 48 167 1.0 1.0 0.00 0.09 0.00 87 1012.2
20260505075139 48 221 0.0 1.0 0.00 0.09 0.00 90 1012.2
20260505074729 48 221 0.0 1.0 0.00 0.09 0.00 90 1012.2
20260505074228 48 256 0.0 1.0 0.00 0.09 0.00 90 1012.2
20260505073727 48 205 1.0 1.0 0.00 0.09 0.00 91 1012.3
20260505073638 48 223 1.0 1.0 0.00 0.09 0.00 91 1012.2
20260505073227 48 223 1.0 1.0 0.00 0.09 0.00 91 1012.2
20260505073138 48 227 0.0 1.0 0.00 0.09 0.00 92 1012.3
20260505072726 48 227 0.0 1.0 0.00 0.09 0.00 92 1012.3
20260505072226 48 209 1.0 1.0 0.00 0.09 0.00 92 1012.3
20260505072137 48 228 1.0 1.0 0.00 0.09 0.00 92 1012.3
20260505071725 48 228 1.0 1.0 0.00 0.09 0.00 92 1012.3
20260505071224 48 215 1.0 1.0 0.00 0.09 0.00 92 1012.4
20260505070724 48 224 1.0 1.0 0.00 0.09 0.00 93 1012.3
20260505070223 48 239 1.0 1.0 0.00 0.09 0.00 93 1012.4
20260505065722 48 249 0.0 1.0 0.00 0.09 0.00 94 1012.4
20260505065222 48 224 1.0 1.0 0.00 0.09 0.00 93 1012.4
20260505064721 48 227 1.0 1.0 0.00 0.09 0.00 93 1012.4
20260505064221 48 250 0.0 1.0 0.00 0.09 0.00 93 1012.4
20260505063720 48 227 1.0 1.0 0.00 0.09 0.00 93 1012.4
20260505063219 48 217 1.0 1.0 0.00 0.09 0.00 94 1012.4
20260505062718 48 275 0.0 1.0 0.00 0.09 0.00 94 1012.5
20260505062218 48 273 0.0 1.0 0.00 0.09 0.00 93 1012.5
20260505061717 48 183 0.0 1.0 0.00 0.09 0.00 93 1012.6
20260505061216 48 259 0.0 1.0 0.00 0.09 0.00 93 1012.8
20260505060716 48 217 0.0 1.0 0.00 0.09 0.00 93 1012.6
20260505060215 48 252 1.0 1.0 0.00 0.09 0.00 93 1012.6
20260505055714 48 232 1.0 1.0 0.00 0.09 1.41 93 1012.6
20260505055624 48 205 1.0 1.0 0.01 0.09 1.41 93 1012.5
20260505055214 48 205 1.0 1.0 0.01 0.09 1.41 93 1012.5
20260505054713 48 127 0.0 0.0 0.01 0.09 1.41 93 1012.4
20260505054624 48 176 0.0 1.0 0.01 0.09 1.41 92 1012.3
20260505054212 48 176 0.0 1.0 0.01 0.09 1.41 92 1012.3
20260505054123 48 202 0.0 1.0 0.01 0.09 1.41 92 1012.4
20260505053712 48 202 0.0 1.0 0.01 0.09 1.41 92 1012.4
20260505053211 48 196 1.0 1.0 0.01 0.09 1.41 93 1012.4
20260505052711 48 235 0.0 1.0 0.01 0.09 1.41 94 1012.5
20260505052210 48 236 0.0 1.0 0.01 0.09 1.44 93 1012.4
20260505051709 48 241 1.0 1.0 0.01 0.09 1.45 93 1012.6
20260505051616 48 256 0.0 1.0 0.01 0.09 1.45 93 1012.6
20260505051208 48 256 0.0 1.0 0.01 0.09 1.45 93 1012.6
20260505051116 48 234 0.0 1.0 0.01 0.09 1.45 94 1012.6
20260505050708 48 234 0.0 1.0 0.01 0.09 1.45 94 1012.6
20260505050610 48 230 0.0 0.0 0.01 0.09 1.46 94 1012.6
20260505050207 48 230 0.0 0.0 0.01 0.09 1.46 94 1012.6
20260505041701 48 274 0.0 1.0 0.01 0.07 0.98 91 1013.0
20260505041201 48 300 0.0 1.0 0.01 0.07 0.95 91 1013.0
20260505040700 48 288 0.0 0.0 0.01 0.07 0.92 90 1012.9
20260505040159 49 306 0.0 1.0 0.01 0.07 0.85 88 1012.8
20260505040109 50 289 0.0 1.0 0.01 0.07 0.81 86 1012.6
20260505035659 50 289 0.0 1.0 0.01 0.07 0.81 86 1012.6
20260505035158 51 314 0.0 1.0 0.00 0.07 0.70 82 1012.6
20260505035109 52 277 0.0 1.0 0.00 0.07 0.69 78 1012.6
20260505034657 52 277 0.0 1.0 0.00 0.07 0.69 78 1012.6
20260505034157 52 309 0.0 0.0 0.00 0.06 0.60 72 1012.5
20260505033656 53 4 0.0 1.0 0.00 0.06 0.56 69 1012.5
20260505033156 53 27 0.0 1.0 0.00 0.06 0.56 64 1012.3
20260505032655 53 36 1.0 1.0 0.00 0.06 0.56 63 1012.0
20260505032154 53 32 1.0 1.0 0.00 0.06 0.56 63 1011.9
20260505031654 53 27 1.0 2.0 0.00 0.06 0.56 62 1011.9
20260505031555 53 37 1.0 3.0 0.00 0.06 0.56 61 1011.9
20260505031153 53 37 1.0 3.0 0.00 0.06 0.56 61 1011.9
20260505031100 53 34 1.0 2.0 0.00 0.06 0.56 62 1011.8
20260505030652 53 34 1.0 2.0 0.00 0.06 0.56 62 1011.8
20260505030554 53 47 1.0 1.0 0.00 0.06 0.56 61 1011.7
20260505030152 53 47 1.0 1.0 0.00 0.06 0.56 61 1011.7
20260505030054 53 40 2.0 2.0 0.00 0.06 0.56 61 1011.6
20260505025651 53 40 2.0 2.0 0.00 0.06 0.56 61 1011.6
20260505025554 54 31 1.0 2.0 0.00 0.06 0.56 61 1011.5
20260505025151 54 31 1.0 2.0 0.00 0.06 0.56 61 1011.5
20260505024650 54 33 1.0 1.0 0.00 0.06 0.56 61 1011.3
20260505024553 54 53 1.0 2.0 0.00 0.06 0.56 62 1011.3
20260505024149 54 53 1.0 2.0 0.00 0.06 0.56 62 1011.3
20260505023649 54 43 1.0 2.0 0.00 0.06 0.56 62 1011.3
20260505023552 54 48 1.0 2.0 0.00 0.06 0.57 62 1011.3
20260505023148 54 48 1.0 2.0 0.00 0.06 0.57 62 1011.3
20260505023056 54 55 2.0 3.0 0.00 0.06 0.56 63 1011.3
20260505022647 54 55 2.0 3.0 0.00 0.06 0.56 63 1011.3
20260505022556 54 40 2.0 4.0 0.00 0.06 0.72 60 1011.5
20260505022147 54 40 2.0 4.0 0.00 0.06 0.72 60 1011.5
20260505022055 54 50 2.0 3.0 0.00 0.06 0.75 58 1011.3
20260505021646 54 50 2.0 3.0 0.00 0.06 0.75 58 1011.3
20260505021146 54 50 3.0 5.0 0.01 0.06 0.02 61 825.2
20260505020645 54 54 3.0 4.0 0.02 0.06 0.02 60 825.4
20260505020144 54 70 4.0 6.0 0.02 0.06 0.02 59 825.4
20260505015644 54 65 2.0 2.0 0.02 0.06 0.68 58 1011.3
20260505015143 55 68 1.0 2.0 0.02 0.06 0.68 59 1011.2
20260505014642 55 91 1.0 1.0 0.02 0.06 0.68 58 1011.1
20260505014552 56 93 1.0 3.0 0.02 0.06 0.68 56 1011.0
20260505014142 56 93 1.0 3.0 0.02 0.06 0.68 56 1011.0
20260505013641 57 106 2.0 5.0 0.02 0.06 0.02 51 825.1
20260505013141 56 81 1.0 1.0 0.02 0.06 0.67 51 1011.1
20260505012640 56 62 0.0 0.0 0.02 0.06 0.67 52 1011.1
20260505012550 57 42 0.0 1.0 0.02 0.06 0.64 56 1011.1
20260505012140 57 42 0.0 1.0 0.02 0.06 0.64 56 1011.1
20260505011639 57 338 0.0 1.0 0.02 0.06 0.53 55 1011.0
20260505011539 58 27 1.0 2.0 0.01 0.05 0.43 52 1011.1
20260505011138 58 27 1.0 2.0 0.01 0.05 0.43 52 1011.1
20260505011024 59 302 0.0 1.0 0.00 0.04 0.11 49 1011.1
20260505010638 59 302 0.0 1.0 0.00 0.04 0.11 49 1011.1
20260505010137 60 262 0.0 0.0 0.00 0.04 0.01 43 1011.0
20260505010023 60 22 1.0 1.0 0.00 0.04 0.00 42 1010.9
20260505005636 60 22 1.0 1.0 0.00 0.04 0.00 42 1010.9
20260505005538 60 320 0.0 0.0 0.00 0.04 0.00 43 1010.9
20260505005135 60 320 0.0 0.0 0.00 0.04 0.00 43 1010.9
20260505005042 60 20 1.0 1.0 0.00 0.04 0.00 41 1010.8
20260505004635 60 20 1.0 1.0 0.00 0.04 0.00 41 1010.8
20260505004134 60 2 1.0 1.0 0.00 0.04 0.00 39 1010.6
20260505004041 60 30 2.0 3.0 0.00 0.04 0.00 39 1010.5
20260505003633 60 30 2.0 3.0 0.00 0.04 0.00 39 1010.5
20260505003535 60 28 2.0 3.0 0.00 0.04 0.00 38 1010.4
20260505003133 60 28 2.0 3.0 0.00 0.04 0.00 38 1010.4
20260505002632 61 35 2.0 3.0 0.00 0.04 0.00 37 1010.4
20260505002540 61 40 2.0 3.0 0.00 0.04 0.00 37 1010.4
20260505002131 61 40 2.0 3.0 0.00 0.04 0.00 37 1010.4
20260505001631 61 33 2.0 3.0 0.00 0.04 0.00 37 1010.3
20260505001130 61 39 4.0 6.0 0.00 0.04 0.00 36 1010.3
20260505000629 62 32 2.0 3.0 0.00 0.04 0.00 36 1010.2
20260505000129 62 31 2.0 4.0 0.00 0.04 0.00 36 1010.2
20260504235628 62 32 3.0 6.0 0.00 0.04 0.00 35 1009.9
20260504235127 62 34 3.0 4.0 0.00 0.04 0.00 34 1009.9
20260504234626 63 35 2.0 4.0 0.01 0.04 0.00 34 1009.9
20260504234126 63 29 1.0 3.0 0.01 0.04 0.00 33 1009.8
20260504234036 63 32 2.0 3.0 0.01 0.04 0.00 32 1009.8
20260504233625 63 32 2.0 3.0 0.01 0.04 0.00 32 1009.8
20260504233535 63 37 3.0 3.0 0.01 0.04 0.00 32 1009.7
20260504233125 63 37 3.0 3.0 0.01 0.04 0.00 32 1009.7
20260504232624 64 32 3.0 6.0 0.01 0.04 0.00 32 1009.8
20260504232534 64 39 2.0 3.0 0.01 0.04 0.00 32 1009.8
20260504232123 64 39 2.0 3.0 0.01 0.04 0.00 32 1009.8
20260504231622 64 42 2.0 3.0 0.01 0.04 0.00 31 1009.8
20260504231524 64 32 1.0 3.0 0.01 0.04 0.00 31 1009.7
20260504231122 64 32 1.0 3.0 0.01 0.04 0.00 31 1009.7
20260504231023 64 28 1.0 2.0 0.01 0.04 0.00 31 1009.6
20260504230621 64 28 1.0 2.0 0.01 0.04 0.00 31 1009.6
20260504230523 64 26 1.0 3.0 0.01 0.04 0.00 31 1009.6
20260504230121 64 26 1.0 3.0 0.01 0.04 0.00 31 1009.6
20260504230017 64 44 3.0 4.0 0.02 0.04 0.00 31 1009.5
20260504225620 64 44 3.0 4.0 0.02 0.04 0.00 31 1009.5
20260504225119 64 33 2.0 3.0 0.04 0.04 0.00 31 1009.5
20260504225016 64 32 2.0 3.0 0.03 0.03 0.00 31 1009.6
20260504224619 64 32 2.0 3.0 0.03 0.03 0.00 31 1009.6
20260504224526 64 32 2.0 3.0 0.03 0.03 0.00 31 1009.6
20260504224118 64 32 2.0 3.0 0.03 0.03 0.00 31 1009.6
20260504224025 64 41 2.0 3.0 0.03 0.03 0.00 31 1009.3
20260504223617 64 41 2.0 3.0 0.03 0.03 0.00 31 1009.3
20260504223117 64 35 3.0 4.0 0.03 0.03 0.00 31 1009.3
20260504223019 64 33 3.0 5.0 0.03 0.03 0.00 31 1009.5
20260504222616 64 33 3.0 5.0 0.03 0.03 0.00 31 1009.5
20260504222524 64 42 3.0 4.0 0.03 0.03 0.00 30 1009.3
20260504222115 64 42 3.0 4.0 0.03 0.03 0.00 30 1009.3
20260504222018 64 33 3.0 4.0 0.03 0.03 0.00 30 1009.2
20260504221615 64 33 3.0 4.0 0.03 0.03 0.00 30 1009.2
20260504221114 64 47 3.0 5.0 0.03 0.03 0.00 30 1009.0
20260504220613 65 42 3.0 4.0 0.02 0.02 0.00 30 1008.5
20260504220113 65 38 3.0 5.0 0.02 0.02 0.00 29 1008.4
20260504215612 66 33 4.0 5.0 0.02 0.02 0.00 29 1008.4
20260504215112 66 40 3.0 5.0 0.00 0.00 0.00 28 1008.4
20260504214611 65 34 3.0 4.0 0.00 0.00 0.00 28 1008.5
20260504214110 66 36 4.0 6.0 0.00 0.00 0.00 29 1008.3
20260504213610 66 36 4.0 5.0 0.00 0.00 0.00 28 1008.7
20260504213519 67 42 3.0 4.0 0.00 0.00 0.00 24 1008.7
20260504213109 67 42 3.0 4.0 0.00 0.00 0.00 24 1008.7
20260504212608 67 38 1.0 2.0 0.00 0.00 0.00 24 1008.7
20260504212108 67 34 2.0 4.0 0.00 0.00 0.00 24 1008.7
20260504212018 67 28 1.0 1.0 0.00 0.00 0.00 25 1008.9
20260504211607 67 28 1.0 1.0 0.00 0.00 0.00 25 1008.9
20260504211518 68 11 1.0 1.0 0.00 0.00 0.00 24 1008.9
20260504211106 68 11 1.0 1.0 0.00 0.00 0.00 24 1008.9
20260504211017 67 34 2.0 3.0 0.00 0.00 0.00 23 1008.9
20260504210606 67 34 2.0 3.0 0.00 0.00 0.00 23 1008.9
20260504210105 67 331 1.0 2.0 0.00 0.00 0.00 24 1008.9
20260504205605 67 42 2.0 4.0 0.00 0.00 0.00 24 1008.6
20260504205104 67 18 1.0 2.0 0.00 0.00 0.00 25 1008.9
20260504204603 67 23 1.0 2.0 0.00 0.00 0.00 25 1009.0
20260504204510 67 34 1.0 3.0 0.00 0.00 0.00 24 1009.1
20260504204103 67 34 1.0 3.0 0.00 0.00 0.00 24 1009.1
20260504203602 66 31 1.0 3.0 0.00 0.00 0.00 24 1009.2
20260504203101 66 29 1.0 2.0 0.00 0.00 0.00 25 1009.2
20260504202601 66 32 4.0 5.0 0.00 0.00 0.00 26 1009.3
20260504202100 67 316 1.0 3.0 0.00 0.00 0.00 24 1008.9
20260504202007 67 290 0.0 1.0 0.00 0.00 0.00 24 1009.1
20260504201559 67 290 0.0 1.0 0.00 0.00 0.00 24 1009.1
20260504201059 66 270 1.0 1.0 0.00 0.00 0.00 25 1009.1
20260504200558 67 281 1.0 2.0 0.00 0.00 0.00 26 1009.1
20260504200057 67 305 1.0 1.0 0.00 0.00 0.00 25 1009.2
20260504195557 68 283 1.0 1.0 0.00 0.00 0.00 23 1009.1
20260504195056 68 253 2.0 3.0 0.00 0.00 0.00 22 1009.1
20260504194555 68 282 1.0 1.0 0.00 0.00 0.00 22 1009.1
20260504194055 69 270 1.0 1.0 0.00 0.00 0.00 21 1009.1
20260504193554 69 285 0.0 1.0 0.00 0.00 0.00 23 1009.2
20260504193054 70 297 0.0 1.0 0.00 0.00 0.00 21 1009.1
20260504192553 70 259 1.0 2.0 0.00 0.00 0.00 20 823.5
20260504192052 70 310 1.0 2.0 0.00 0.00 0.00 20 823.5
20260504191552 70 283 1.0 1.0 0.00 0.00 0.00 20 823.4
20260504191051 70 302 1.0 1.0 0.00 0.00 0.00 21 823.5
20260504190551 70 324 1.0 2.0 0.00 0.00 0.00 21 823.4
20260504190501 71 35 4.0 6.0 0.00 0.00 0.00 20 823.4
20260504190050 71 35 4.0 6.0 0.00 0.00 0.00 20 823.4
20260504185549 71 329 0.0 1.0 0.00 0.00 0.00 21 1009.1
20260504185049 71 294 0.0 1.0 0.00 0.00 0.00 21 1009.1
20260504184548 73 298 0.0 1.0 0.00 0.00 0.00 21 1009.0
20260504184047 73 47 1.0 1.0 0.00 0.00 0.00 22 1009.1
20260504183547 73 31 1.0 2.0 0.00 0.00 0.00 22 1009.1
20260504183047 73 324 1.0 1.0 0.00 0.00 0.00 22 1009.2
20260504182546 72 306 1.0 1.0 0.00 0.00 0.00 23 1009.2
20260504182045 72 350 0.0 1.0 0.00 0.00 0.00 24 1009.2
20260504181545 72 1 1.0 2.0 0.00 0.00 0.00 24 1009.3
20260504181044 72 36 1.0 3.0 0.00 0.00 0.00 23 1009.3
20260504180543 73 301 0.0 1.0 0.00 0.00 0.00 23 1009.5
20260504180042 73 0 1.0 1.0 0.00 0.00 0.00 24 1009.5
20260504175542 72 326 0.0 1.0 0.00 0.00 0.00 23 1009.5
20260504175041 72 292 1.0 1.0 0.00 0.00 0.00 23 1009.6
20260504174541 72 282 1.0 1.0 0.00 0.00 0.00 22 1009.7
20260504174040 71 351 0.0 1.0 0.00 0.00 0.00 25 1009.8
20260504173539 71 285 1.0 1.0 0.00 0.00 0.00 24 1009.8
20260504173039 71 312 1.0 1.0 0.00 0.00 0.00 24 1009.8
20260504172538 70 300 1.0 1.0 0.00 0.00 0.00 25 1009.8
20260504172038 71 287 1.0 1.0 0.00 0.00 0.00 24 1009.8
20260504171537 71 286 1.0 1.0 0.00 0.00 0.00 25 1009.9
20260504171036 71 312 0.0 1.0 0.00 0.00 0.00 25 1009.9
20260504170536 70 279 1.0 1.0 0.00 0.00 0.00 25 1009.9
20260504151021 62 285 1.0 1.0 0.00 0.00 0.00 30 1010.8
20260504150520 61 281 1.0 1.0 0.00 0.00 0.00 30 1010.8
20260504141014 55 258 1.0 1.0 0.00 0.00 0.00 39 1010.9
20260504140513 55 270 1.0 1.0 0.00 0.00 0.00 38 1010.9
20260504130505 49 0 0.0 0.0 0.00 0.00 0.00 47 1010.5
20260504110449 47 212 0.0 1.0 0.00 0.00 0.00 49 1010.6
20260504100441 46 174 0.0 0.0 0.00 0.00 0.00 54 1010.9